sat.trackr.live / text

‹ back to catalog

ICESAT-2

NORAD 43613 · 2018-070A

PAYLOAD ACTIVE UNKNOWN

§ Identity

Operator
Country
US
Launch date
2018-09-15
Launch site
AFWTR
Launch vehicle
Mass (kg)
RCS (m²)

Purposes: earth_obs

External: N2YO · Heavens-Above · Gunter

§ Orbital elements

Epoch: 2026-09-20T03:57:50.177376Z

Period
94.23 min
Inclination
92.0023°
Eccentricity
0.0005968
Mean motion
15.28255516 rev/d
Perigee alt
476.9 km
Apogee alt
485.1 km
Semi-major
6,859.2 km
B*
2.1654e-4
RAAN
316.6286°
Arg perigee
102.4701°
Mean anomaly
257.7216°
Rev number
44,696

§ Raw data

ICESAT-21 43613U 18070A   26263.16516409  .00005962  00000+0  21654-3 0  99962 43613  92.0023 316.6286 0005968 102.4701 257.7216 15.28255516446969

JSON: /api/v1/satellites/43613 · /tle

For live sub-satellite position, see the globe view (requires WebGL).

§ Visibility from observer

Set your observer location to see the next 7 days of passes ≥ 10°. The values pass through the URL so the page stays shareable.

No JS? Fill the form by hand. The geolocation button needs JavaScript.

§ Radio — SatNOGS DB

ModeDescriptionDownlinkUplink
FM Mode S downlink 2.279 GHz

1 transmitter · refreshed weekly from db.satnogs.org